Regional Weather Roundup
Issued by NWS

Home | Current Version | Previous Version | Graphics & Text | Print | Product List | Glossary On
Versions: 1 2 3 4 5 6 7 8 9 10 11 12 13 14 15 16 17 18 19 20 21 22 23 24 25 26 27 28 29 30 31 32 33 34 35 36 37 38 39 40 41 42 43 44 45 46 47 48 49 50
000
ASUS43 KLOT 300606
RWRIL

ILLINOIS REGIONAL WEATHER ROUNDUP
NATIONAL WEATHER SERVICE CHICAGO/ROMEOVILLE IL
100 AM CDT SAT AUG 30 2014

NOTE: "FAIR" INDICATES FEW OR NO CLOUDS BELOW 12,000 FEET WITH NO
SIGNIFICANT WEATHER AND/OR OBSTRUCTIONS TO VISIBILITY.

* THESE STATIONS ARE NOT UNDER NWS QUALITY CONTROL. THEY ALSO MAY NOT
  REPORT WEATHER SUCH AS PRECIPITATION OR FOG.

ILZ001-002-007-009-015-016-024-300700-
NORTHWEST ILLINOIS

CITY           SKY/WX    TMP DP  RH WIND       PRES   REMARKS
MOLINE         FAIR      71  68  90 S10       29.83R
6HR MIN TEMP:  71; 6HR MAX TEMP:  80; 6HR PCP:  0.05;

STERLING*      FAIR      72  66  83 CALM      29.84S
SAVANNA*       CLOUDY    73  67  84 S10       29.82S
$$

ILZ003-004-008-010-011-017-018-300700-
NORTH CENTRAL ILLINOIS

CITY           SKY/WX    TMP DP  RH WIND       PRES   REMARKS
ROCKFORD       CLOUDY    71  67  87 S9        29.84F
6HR MIN TEMP:  70; 6HR MAX TEMP:  80; 6HR PCP:  0.02;

FREEPORT*      FAIR      70  68  93 S8        29.84S
ROCHELLE*      MOCLDY    70  67  91 S5        29.85S
DE KALB*       MOCLDY    69  66  89 S9        29.86F
PERU*          FAIR      73  68  83 S10       29.85S
$$

ILZ005-006-012>014-019>023-300700-
NORTHEAST ILLINOIS

CITY           SKY/WX    TMP DP  RH WIND       PRES   REMARKS
CHICAGO-OHARE  CLOUDY    75  67  76 S12       29.86S
6HR MIN TEMP:  74; 6HR MAX TEMP:  82; 6HR PCP:  0.08;

CHICAGO-MIDWAY MOCLDY    78  69  73 S8        29.87F HX  80
6HR MIN TEMP:  77; 6HR MAX TEMP:  83;

AURORA         FAIR      73  68  84 S7        29.86F
6HR MIN TEMP:  73; 6HR MAX TEMP:  76; 6HR PCP:  0.01;

LANSING*         N/A    N/A N/A N/A MISG        N/A
JOLIET*        LGT RAIN  73  68  83 S6G16     29.87F
WAUKEGAN       FAIR      75  68  78 S12       29.85S
6HR MIN TEMP:  73; 6HR MAX TEMP:  77;

DUPAGE AIRPORT FAIR      74  70  87 S10       29.86F
6HR MIN TEMP:  74; 6HR MAX TEMP:  79; 6HR PCP: TRACE;

KANKAKEE*      MOCLDY    74  70  86 S9        29.89F
WHEELING       FAIR      77  69  76 S12       29.88R
6HR MIN TEMP:  77; 6HR MAX TEMP:  82; 6HR PCP: TRACE;

MORRIS*        LGT RAIN  74  70  87 S6        29.86F
ROMEOVILLE*    LGT RAIN  73  70  91 S12       29.88F
NORTHERLY ISL    N/A     75  67  76 S10         N/A
$$

LMZ740>746-300700-
SOUTHERN LAKE MICHIGAN

STATION/POSITION SKY/WX   TEMP    WIND        PRES    VSBY  WAVE
                          AIR SEA DIR/SP/G                  HT/PER
                          (F)     (DEG/KT/KT) (MB)    (MI)  (FT/S)
SOUTHERN BUOY              72 69  160/ 17/ 21 1011.0F
WAUKEGAN HARBOR            73     180/ 12/ 15   N/A
HARRISON CRIB              73     170/ 15/ 17   N/A
BURNHAM HARBOR             75     190/  9/ 14   N/A
CALUMET HARBOR             75     160/  6/  9 1010.7F
MICHIGAN CITY              73     140/ 12/ 16   N/A
MICHIGAN CITY 6N           73 72  160/ 12/ 16   N/A           1/ 2
ST. JOSEPH                 72 70  150/ 16/ 19   N/A           2/ 3
$$

ILZ025>027-034>036-040-047-049-050-058-095>099-300700-
WEST-CENTRAL ILLINOIS

CITY           SKY/WX    TMP DP  RH WIND       PRES   REMARKS
QUINCY         FAIR      72  69  90 S8        29.87S
GALESBURG*     FAIR      69  69  99 S7        29.86S
MACOMB*        FAIR      71  70  96 S7        29.88S
JACKSONVILLE*  FAIR      75  72  88 S9        29.90S
PITTSFIELD*    FAIR      73  69  89 S5        29.90R
$$

ILZ028>032-037-038-041>044-048-051>054-059>061-300700-
CENTRAL ILLINOIS

CITY           SKY/WX    TMP DP  RH WIND       PRES   REMARKS
PONTIAC        MOCLDY    73  73 100 SE6       29.88S FOG
DECATUR        CLOUDY    77  69  76 S13       29.92S
PEORIA         FAIR      74  69  85 SW9       29.87R
6HR MIN TEMP:  70; 6HR MAX TEMP:  78; 6HR PCP:  0.20;

LACON*         FAIR      71  68  90 S6        29.85R
LINCOLN*       FAIR      75  69  82 S5        29.86S
SPRINGFIELD    FAIR      76  70  82 SW9       29.89S
6HR MIN TEMP:  73; 6HR MAX TEMP:  83; 6HR PCP:  0.02;

TAYLORVILLE    MOCLDY    72  70  94 S8        29.91S
$$

ILZ033-039-045-046-055>057-062-063-300700-
EAST-CENTRAL ILLINOIS

CITY           SKY/WX    TMP DP  RH WIND       PRES   REMARKS
CHAMPAIGN      MOCLDY    75  69  81 S8        29.93S
DANVILLE*      RAIN      73  70  91 S6        29.92S
RANTOUL*       FAIR      75  70  85 S8        29.93S
MATTOON        FAIR      76  68  76 S8        29.93S
PARIS*         MOCLDY    72  71  98 SE5       29.96S
$$

ILZ079-100>102-300700-
SOUTHWEST ILLINOIS

CITY           SKY/WX    TMP DP  RH WIND       PRES   REMARKS
BELLEVILLE     MOCLDY    75  71  85 VRB3      29.93S
CAHOKIA*       FAIR      77  68  73 S7        29.92S
SPARTA*        FAIR      72  69  90 S9        29.97R
$$

ILZ064>066-069>071-074>076-080>082-084>086-088>090-092>094-300700-
SOUTH-CENTRAL ILLINOIS

CITY           SKY/WX    TMP DP  RH WIND       PRES   REMARKS
CARBONDALE     FAIR      74  68  81 S9        29.97S
6HR MIN TEMP:  74; 6HR MAX TEMP:  81; 6HR PCP: TRACE;

CAIRO*         FAIR      75  71  86 CALM      29.99S
EFFINGHAM*     FAIR      76  65  67 S5        29.95R
MARION         FAIR      75  68  78 S7        29.99S
MT. VERNON     FAIR      75  64  69 SW9       29.98R
CENTRALIA*     FAIR      75  66  73 S10       29.96R
SALEM*         FAIR      77  70  79 SW14      29.96S
METROPOLIS*    FAIR      75  69  82 CALM      30.00S
$$

ILZ067-068-072-073-078-083-087-091-300700-
SOUTHEAST ILLINOIS

CITY           SKY/WX    TMP DP  RH WIND       PRES   REMARKS
LAWRENCEVILLE  CLOUDY    75  69  81 S8        29.97S
FLORA*         FAIR      74  68  82 S6        29.97R
FAIRFIELD*     FAIR      75  72  88 S6        29.97R
HARRISBURG*    FAIR      75  70  84 S6        30.00S
ROBINSON*      FAIR      75  70  84 S7        29.96S
CARMI*         FAIR      76  69  79 S7        29.98R
$$

ABBREVIATIONS USED IN REMARKS
   TC - TEMPERATURE IN CELSIUS
  WCI - WIND CHILL INDEX
   HX - HEAT INDEX
  VSB - VISIBILITY
$$




USA.gov is the U.S. government's official web portal to all federal, state and local government web resources and services.